TimeEDT,TemperatureF,Dew PointF,Humidity,Sea Level PressureIn,VisibilityMPH,Wind Direction,Wind SpeedMPH,Gust SpeedMPH,PrecipitationIn,Events,Conditions,WindDirDegrees,DateUTC
12:05 AM,73.6,71.6,93,29.71,10.0,Calm,Calm,-,N/A,,Clear,0,2013-07-24 04:05:00
12:25 AM,73.9,71.4,92,29.71,10.0,Calm,Calm,-,N/A,,Clear,0,2013-07-24 04:25:00
12:45 AM,73.4,71.6,94,29.71,7.0,Calm,Calm,-,N/A,,Clear,0,2013-07-24 04:45:00
1:05 AM,73.4,71.8,95,29.71,7.0,Calm,Calm,-,N/A,,Clear,0,2013-07-24 05:05:00
1:25 AM,73.4,71.8,95,29.70,7.0,Calm,Calm,-,N/A,,Clear,0,2013-07-24 05:25:00
1:45 AM,73.4,71.8,95,29.69,7.0,Calm,Calm,-,N/A,,Clear,0,2013-07-24 05:45:00
2:05 AM,73.6,72.0,95,29.69,10.0,Calm,Calm,-,N/A,,Clear,0,2013-07-24 06:05:00
2:25 AM,74.3,72.0,92,29.68,10.0,Calm,Calm,-,N/A,,Clear,0,2013-07-24 06:25:00
2:45 AM,75.2,71.4,88,29.69,10.0,Calm,Calm,-,N/A,,Clear,0,2013-07-24 06:45:00
3:05 AM,78.1,70.2,77,29.70,10.0,Calm,Calm,-,N/A,,Clear,0,2013-07-24 07:05:00
3:25 AM,78.8,68.4,70,29.69,10.0,West,4.6,-,N/A,,Scattered Clouds,270,2013-07-24 07:25:00
3:45 AM,78.1,68.0,71,29.69,10.0,Calm,Calm,-,N/A,,Scattered Clouds,0,2013-07-24 07:45:00
4:05 AM,75.2,69.8,83,29.69,10.0,Calm,Calm,-,N/A,,Clear,0,2013-07-24 08:05:00
4:25 AM,72.9,70.0,91,29.68,10.0,Calm,Calm,-,N/A,,Clear,0,2013-07-24 08:25:00
4:40 AM,72.7,70.2,92,29.69,10.0,Calm,Calm,-,N/A,,Clear,0,2013-07-24 08:40:00
5:05 AM,71.8,69.8,93,29.69,10.0,Calm,Calm,-,N/A,,Clear,0,2013-07-24 09:05:00
5:25 AM,71.4,69.3,93,29.70,10.0,Calm,Calm,-,N/A,,Clear,0,2013-07-24 09:25:00
5:45 AM,70.5,69.1,95,29.69,10.0,Calm,Calm,-,N/A,,Clear,0,2013-07-24 09:45:00
6:05 AM,71.8,69.3,92,29.71,10.0,Calm,Calm,-,N/A,,Clear,0,2013-07-24 10:05:00
6:25 AM,70.7,69.3,95,29.71,10.0,Calm,Calm,-,N/A,,Clear,0,2013-07-24 10:25:00
6:45 AM,72.5,69.4,90,29.72,10.0,Calm,Calm,-,N/A,,Clear,0,2013-07-24 10:45:00
7:05 AM,75.0,68.0,79,29.73,10.0,Calm,Calm,-,N/A,,Clear,0,2013-07-24 11:05:00
7:25 AM,77.4,66.4,69,29.74,10.0,West,5.8,-,N/A,,Clear,280,2013-07-24 11:25:00
7:45 AM,77.9,67.3,70,29.74,10.0,NW,3.5,-,N/A,,Clear,310,2013-07-24 11:45:00
8:05 AM,78.6,67.3,68,29.76,10.0,NW,5.8,-,N/A,,Mostly Cloudy,320,2013-07-24 12:05:00
8:25 AM,78.3,67.1,68,29.75,10.0,NNW,5.8,-,N/A,,Mostly Cloudy,330,2013-07-24 12:25:00
8:45 AM,78.4,66.9,68,29.76,10.0,NW,4.6,-,N/A,,Mostly Cloudy,320,2013-07-24 12:45:00
9:05 AM,78.4,67.3,68,29.77,10.0,NW,6.9,-,N/A,,Scattered Clouds,310,2013-07-24 13:05:00
9:25 AM,78.8,67.5,68,29.77,10.0,NW,6.9,-,N/A,,Scattered Clouds,310,2013-07-24 13:25:00
9:45 AM,79.5,67.8,67,29.77,10.0,NW,5.8,-,N/A,,Scattered Clouds,320,2013-07-24 13:45:00
10:05 AM,78.3,67.5,69,29.79,10.0,WNW,6.9,-,N/A,,Mostly Cloudy,290,2013-07-24 14:05:00
10:25 AM,77.9,67.3,70,29.80,10.0,NW,8.1,-,N/A,,Overcast,320,2013-07-24 14:25:00
10:45 AM,78.4,68.2,71,29.81,10.0,NNW,6.9,-,N/A,,Mostly Cloudy,330,2013-07-24 14:45:00
11:05 AM,79.0,68.0,69,29.81,10.0,WNW,8.1,-,N/A,,Mostly Cloudy,300,2013-07-24 15:05:00
11:25 AM,79.7,68.2,68,29.81,10.0,NNW,6.9,-,N/A,,Overcast,340,2013-07-24 15:25:00
11:45 AM,80.6,68.7,67,29.81,10.0,NW,5.8,-,N/A,,Scattered Clouds,310,2013-07-24 15:45:00
12:05 PM,79.9,68.4,68,29.82,10.0,NW,5.8,-,N/A,,Scattered Clouds,310,2013-07-24 16:05:00
12:25 PM,79.9,67.8,66,29.82,10.0,NNW,6.9,-,N/A,,Clear,340,2013-07-24 16:25:00
12:45 PM,80.8,68.5,66,29.81,10.0,NNE,5.8,-,N/A,,Clear,30,2013-07-24 16:45:00
1:05 PM,81.0,68.5,66,29.81,10.0,North,4.6,-,N/A,,Clear,350,2013-07-24 17:05:00
1:25 PM,81.9,68.4,63,29.81,10.0,NNW,6.9,-,N/A,,Scattered Clouds,330,2013-07-24 17:25:00
1:45 PM,81.5,68.4,64,29.81,10.0,NNW,4.6,-,N/A,,Scattered Clouds,340,2013-07-24 17:45:00
2:05 PM,81.3,68.4,65,29.81,10.0,NNW,5.8,-,N/A,,Scattered Clouds,330,2013-07-24 18:05:00
2:25 PM,81.7,68.9,65,29.81,10.0,NNW,6.9,-,N/A,,Mostly Cloudy,330,2013-07-24 18:25:00
2:45 PM,82.8,68.5,62,29.81,10.0,NNW,4.6,-,N/A,,Overcast,330,2013-07-24 18:45:00
3:05 PM,83.8,68.7,60,29.80,10.0,North,5.8,-,N/A,,Scattered Clouds,10,2013-07-24 19:05:00
3:25 PM,83.8,68.2,59,29.80,10.0,NW,3.5,-,N/A,,Scattered Clouds,320,2013-07-24 19:25:00
3:45 PM,85.1,67.5,55,29.79,10.0,NW,8.1,-,N/A,,Scattered Clouds,310,2013-07-24 19:45:00
4:05 PM,84.7,67.8,57,29.80,10.0,WNW,5.8,-,N/A,,Mostly Cloudy,300,2013-07-24 20:05:00
4:25 PM,83.5,67.8,59,29.80,10.0,North,6.9,-,N/A,,Mostly Cloudy,350,2013-07-24 20:25:00
4:45 PM,85.1,68.0,56,29.80,10.0,North,9.2,-,N/A,,Scattered Clouds,360,2013-07-24 20:45:00
5:10 PM,85.1,67.5,55,29.80,10.0,NW,8.1,-,N/A,,Clear,310,2013-07-24 21:10:00
5:30 PM,84.4,67.1,56,29.80,10.0,North,4.6,-,N/A,,Scattered Clouds,350,2013-07-24 21:30:00
5:50 PM,83.3,66.4,57,29.80,10.0,North,6.9,-,N/A,,Scattered Clouds,350,2013-07-24 21:50:00
6:10 PM,83.7,65.8,55,29.81,10.0,North,6.9,-,N/A,,Mostly Cloudy,360,2013-07-24 22:10:00
6:30 PM,83.3,66.6,57,29.81,10.0,NNW,6.9,-,N/A,,Mostly Cloudy,330,2013-07-24 22:30:00
6:50 PM,81.7,65.3,57,29.82,10.0,NNW,5.8,-,N/A,,Scattered Clouds,330,2013-07-24 22:50:00
7:10 PM,82.4,64.0,54,29.82,10.0,NNW,10.4,-,N/A,,Scattered Clouds,330,2013-07-24 23:10:00
7:30 PM,81.5,64.0,55,29.83,10.0,NW,9.2,-,N/A,,Scattered Clouds,320,2013-07-24 23:30:00
7:50 PM,80.6,63.1,55,29.83,10.0,NNW,6.9,-,N/A,,Clear,340,2013-07-24 23:50:00
8:10 PM,79.7,63.9,58,29.85,10.0,NNE,4.6,-,N/A,,Clear,20,2013-07-25 00:10:00
8:30 PM,78.8,63.3,59,29.86,10.0,North,4.6,-,N/A,,Scattered Clouds,350,2013-07-25 00:30:00
8:50 PM,77.9,63.0,60,29.86,10.0,NNW,4.6,-,N/A,,Mostly Cloudy,340,2013-07-25 00:50:00
9:10 PM,77.9,62.2,58,29.88,10.0,North,4.6,-,N/A,,Overcast,360,2013-07-25 01:10:00
9:30 PM,77.2,62.6,61,29.89,10.0,North,3.5,-,N/A,,Scattered Clouds,10,2013-07-25 01:30:00
9:50 PM,76.5,62.8,62,29.90,10.0,North,3.5,-,N/A,,Scattered Clouds,350,2013-07-25 01:50:00
10:10 PM,76.3,62.2,62,29.90,10.0,NNE,4.6,-,N/A,,Mostly Cloudy,20,2013-07-25 02:10:00
10:30 PM,76.1,61.9,61,29.90,10.0,NNE,3.5,-,N/A,,Scattered Clouds,20,2013-07-25 02:30:00
10:50 PM,75.4,62.1,63,29.91,10.0,Calm,Calm,-,N/A,,Clear,0,2013-07-25 02:50:00
11:10 PM,75.2,61.3,62,29.91,10.0,NNE,4.6,-,N/A,,Clear,20,2013-07-25 03:10:00
11:30 PM,74.8,61.0,62,29.91,10.0,North,4.6,-,N/A,,Clear,360,2013-07-25 03:30:00
11:50 PM,74.3,60.8,63,29.91,10.0,NNE,5.8,-,N/A,,Clear,20,2013-07-25 03:50:00